Stations météo

réclame
Mon MeteoGroup
Leuchars, Grande-Bretagne (3171): Température de l'air & dewpoint: 26.11.2020 03:00:00 - 02.12.2020 03:00:00 (GMT)Leuchars, Grande-Bretagne (3171): Température de l'air -20cm & Température de l'air -100cm: 26.11.2020 03:00:00 - 02.12.2020 03:00:00 (GMT)Leuchars, Grande-Bretagne (3171): Vitesse du vent & gusts: 26.11.2020 03:00:00 - 02.12.2020 03:00:00 (GMT)Leuchars, Grande-Bretagne (3171): Direction du vent: 26.11.2020 03:00:00 - 02.12.2020 03:00:00 (GMT)Leuchars, Grande-Bretagne (3171): reduced air pressure: 26.11.2020 03:00:00 - 02.12.2020 03:00:00 (GMT)Leuchars, Grande-Bretagne (3171): visibility: 26.11.2020 03:00:00 - 02.12.2020 03:00:00 (GMT)Leuchars, Grande-Bretagne (3171): Ensoleillement: 26.11.2020 03:00:00 - 02.12.2020 03:00:00 (GMT)Leuchars, Grande-Bretagne (3171): Quantités de précipitations: 26.11.2020 03:00:00 - 02.12.2020 03:00:00 (GMT)
Date & Time tt [°C] td [°C] tt -20cm [°C] tt -100cm [°C] ff [km/h] ff [knt] fx [km/h] fx [knt] dd ppp [hPa] vv [km] sd [min] rr [mm]
02.12.2020 03:00:00 6,7 5,7 - - 21 11 - - WSW 1016,8 30 0 0,0
02.12.2020 02:00:00 6,6 5,7 - - 21 11 - - WSW 1017,8 21 0 0,0
02.12.2020 01:00:00 7,7 6,8 - - 18 10 - - W 1018,8 16 0 0,0
02.12.2020 00:00:00 7,0 7,0 - - 21 11 - - W 1019,7 14 - 0,0
01.12.2020 23:00:00 5,6 5,6 - - 11 6 - - W 1020,4 7 0 0,0
01.12.2020 22:00:00 3,6 3,2 - - 9 5 - - WSW 1021,1 4,0 0 0,0
01.12.2020 21:00:00 5,6 5,1 - - 15 8 - - W 1021,7 10 0 0,0
01.12.2020 20:00:00 4,3 3,7 - - 16 9 - - WSW 1022,1 14 0 0,0
01.12.2020 19:00:00 4,2 3,5 - - 21 11 - - WSW 1022,7 10 0 0,0
01.12.2020 18:00:00 3,8 3,0 - - 15 8 - - WSW 1022,9 20 0 0,0
01.12.2020 17:00:00 4,3 3,1 - - 18 10 - - WSW 1023,4 28 0 0,0
01.12.2020 16:00:00 4,6 3,1 - - 16 9 - - WSW 1023,9 27 0 0,0
01.12.2020 15:00:00 5,7 3,4 - - 11 6 - - SW 1024,4 30 0 0,0
01.12.2020 14:00:00 5,5 3,2 - - 13 7 - - WSW 1024,8 30 0 0,0
01.12.2020 13:00:00 7,2 3,3 - - 15 8 - - WSW 1025,5 30 18 0,0
01.12.2020 12:00:00 5,9 2,9 - - 8 4 - - WSW 1026,3 35 6 0,0
01.12.2020 11:00:00 5,1 2,1 - - 9 5 - - W 1026,7 35 0 0,0
01.12.2020 10:00:00 4,9 1,8 - - 8 4 - - W 1027,1 10 0 0,0
01.12.2020 09:00:00 3,0 1,5 7,2 8,7 8 4 - - WSW 1026,8 30 0 0,0
01.12.2020 08:00:00 2,5 0,9 - - 8 4 - - WSW 1026,8 35 0 0,0
01.12.2020 07:00:00 4,0 1,3 - - 11 6 - - W 1026,8 35 0 0,0
01.12.2020 06:00:00 2,1 0,2 - - 5 3 - - W 1026,7 35 0 0,0
01.12.2020 05:00:00 1,5 -0,7 - - 8 4 - - W 1026,2 35 0 0,0
01.12.2020 04:00:00 2,7 0,5 - - 13 7 - - W 1026,1 40 0 0,0
01.12.2020 03:00:00 3,1 0,9 - - 15 8 - - W 1026,0 35 0 0,0
01.12.2020 02:00:00 2,1 0,2 - - 11 6 - - WSW 1025,7 35 0 0,0
01.12.2020 01:00:00 4,2 1,4 - - 8 4 - - NW 1025,4 35 0 0,0
01.12.2020 00:00:00 4,4 1,2 - - 11 6 - - W 1024,9 35 - 0,0
30.11.2020 23:00:00 4,2 1,2 - - 16 9 - - W 1024,4 45 0 0,0
30.11.2020 22:00:00 4,8 0,9 - - 13 7 - - WNW 1023,7 40 0 0,0
30.11.2020 21:00:00 5,3 1,1 - - 11 6 - - WNW 1022,7 40 0 0,0
30.11.2020 20:00:00 5,3 1,2 - - 13 7 - - NW 1022,2 40 0 0,0
30.11.2020 19:00:00 5,6 1,3 - - 13 7 - - W 1021,0 40 0 0,0
30.11.2020 18:00:00 6,2 0,8 - - 18 10 - - NNW 1019,8 40 0 0,0
30.11.2020 17:00:00 6,4 1,0 - - 13 7 - - NW 1019,1 35 0 0,0
30.11.2020 16:00:00 6,3 1,2 - - 16 9 - - WNW 1018,1 10 0 0,0
30.11.2020 15:00:00 7,6 1,6 - - 26 14 - - NW 1017,0 10 54 0,0
30.11.2020 14:00:00 8,5 2,9 - - 16 9 46 25 NW 1015,2 40 12 0,0
30.11.2020 13:00:00 9,5 4,7 - - 24 13 - - NW 1013,7 45 0 0,2
30.11.2020 12:00:00 10,7 7,5 - - 24 13 - - WNW 1012,2 6 36 0,2
30.11.2020 11:00:00 9,7 8,3 - - 22 12 - - WSW 1011,7 10 48 0,0
30.11.2020 10:00:00 8,2 7,1 - - 13 7 - - WSW 1011,9 10 0 0,0
30.11.2020 09:00:00 8,3 7,0 7,0 8,7 31 17 - - WSW 1012,5 10 0 0,0
30.11.2020 08:00:00 8,3 6,8 - - 28 15 - - WSW 1013,5 35 0 0,0
30.11.2020 07:00:00 7,7 6,7 - - 28 15 - - WSW 1014,4 30 0 0,0
30.11.2020 06:00:00 7,9 6,6 - - 34 18 - - WSW 1015,3 30 0 0,0
30.11.2020 05:00:00 7,6 6,3 - - 31 17 46 25 WSW 1016,0 10 0 0,0
30.11.2020 04:00:00 7,5 6,0 - - 24 13 - - WSW 1017,2 10 0 0,0
30.11.2020 03:00:00 6,0 5,5 - - 18 10 - - WSW 1018,4 8 0 0,2
30.11.2020 02:00:00 6,6 6,2 - - 16 9 - - W 1019,4 6 0 0,8
30.11.2020 01:00:00 6,8 5,9 - - 18 10 - - W 1020,2 9 0 0,0
30.11.2020 00:00:00 5,9 5,4 - - 11 6 - - W 1021,0 10 - 0,0
29.11.2020 23:00:00 5,5 5,2 - - 15 8 - - WSW 1021,4 6 0 0,0
29.11.2020 22:00:00 4,0 3,7 - - 21 11 - - WSW 1022,1 3,4 0 0,0
29.11.2020 21:00:00 3,6 3,0 - - 15 8 - - WSW 1022,6 7 0 0,0
29.11.2020 20:00:00 4,6 3,9 - - 13 7 - - W 1023,0 7 0 0,0
29.11.2020 19:00:00 3,6 3,0 - - 18 10 - - WSW 1023,3 8 0 0,0
29.11.2020 18:00:00 4,5 4,1 - - 9 5 - - WSW 1023,7 10 0 0,0
29.11.2020 17:00:00 4,0 3,9 - - 8 4 - - WSW 1023,9 10 0 0,0
29.11.2020 16:00:00 3,5 3,5 - - 9 5 - - W 1024,2 7 0 0,0
29.11.2020 15:00:00 3,1 3,1 - - 11 6 - - W 1024,5 0,4 0 0,0
29.11.2020 14:00:00 3,7 3,6 - - 9 5 - - W 1024,7 0,6 0 0,0
29.11.2020 13:00:00 3,9 3,7 - - 13 7 - - WSW 1025,2 3,1 0 0,0
29.11.2020 12:00:00 3,9 3,2 - - 8 4 - - W 1025,5 14 0 0,0
29.11.2020 11:00:00 3,2 2,7 - - 5 3 - - W 1025,9 10 0 0,0
29.11.2020 10:00:00 2,6 2,2 - - 5 3 - - NW 1026,0 18 0 0,0
29.11.2020 09:00:00 2,1 1,9 7,2 9,0 5 3 - - WNW 1025,8 10 0 0,0
29.11.2020 08:00:00 1,9 1,8 - - 9 5 - - NW 1025,8 10 0 0,0
29.11.2020 07:00:00 1,6 1,5 - - 9 5 - - W 1025,6 10 0 0,0
29.11.2020 06:00:00 1,3 1,3 - - 5 3 - - WNW 1025,4 9 0 0,0
29.11.2020 05:00:00 0,9 0,9 - - 8 4 - - WNW 1025,4 7 0 0,2
29.11.2020 04:00:00 1,0 1,0 - - 4 2 - - WNW 1025,4 7 0 0,0
29.11.2020 03:00:00 0,3 0,3 - - 8 4 - - W 1025,5 6 0 0,0
29.11.2020 02:00:00 0,0 0,0 - - 8 4 - - W 1026,0 4,2 0 0,0
29.11.2020 01:00:00 -0,5 -0,5 - - 4 2 - - NW 1025,9 0,3 0 0,0
29.11.2020 00:00:00 0,4 0,4 - - 5 3 - - WNW 1026,1 0,1 - 0,0
28.11.2020 23:00:00 0,5 0,5 - - 5 3 - - WNW 1026,0 0,2 0 0,0
28.11.2020 22:00:00 -1,1 -1,1 - - 5 3 - - WNW 1025,6 0,5 0 0,0
28.11.2020 21:00:00 -1,3 -1,4 - - 2 1 - - NW 1025,3 3,1 0 0,0
28.11.2020 20:00:00 -1,6 -1,8 - - 4 2 - - WNW 1024,7 3,3 0 0,0
28.11.2020 19:00:00 -0,7 -0,9 - - 5 3 - - W 1024,5 1,1 0 0,0
28.11.2020 18:00:00 -0,6 -0,8 - - 0 0 - - N 1023,9 4,0 0 0,0
28.11.2020 17:00:00 0,0 -0,5 - - 4 2 - - NW 1023,8 0,7 0 0,0
28.11.2020 16:00:00 1,9 0,3 - - 2 1 - - NNE 1023,4 7 18 0,0
28.11.2020 15:00:00 5,0 3,1 - - 2 1 - - NE 1022,7 10 60 0,0
28.11.2020 14:00:00 6,7 3,0 - - 4 2 - - W 1022,2 10 60 0,0
28.11.2020 13:00:00 7,1 4,2 - - 2 1 - - SW 1022,0 10 60 0,0
28.11.2020 12:00:00 4,8 3,3 - - 8 4 - - W 1021,6 10 60 0,0
28.11.2020 11:00:00 2,4 2,3 - - 8 4 - - WSW 1021,5 9 60 0,0
28.11.2020 10:00:00 -0,1 -0,1 - - 8 4 - - WSW 1021,2 7 36 0,0
28.11.2020 09:00:00 -1,2 -1,2 7,9 9,2 5 3 - - WNW 1020,7 2,8 0 0,0
28.11.2020 08:00:00 -2,3 -2,5 - - 5 3 - - WNW 1019,9 7 0 0,0
28.11.2020 07:00:00 -2,1 -2,2 - - 5 3 - - WNW 1019,0 10 0 0,0
28.11.2020 06:00:00 -2,2 -2,4 - - 8 4 - - W 1018,3 6 0 0,0
28.11.2020 05:00:00 -1,3 -1,4 - - 8 4 - - W 1017,8 10 0 0,0
28.11.2020 04:00:00 -0,6 -0,7 - - 0 0 - - N 1017,5 2,5 0 0,0
28.11.2020 03:00:00 0,1 0,0 - - 2 1 - - WNW 1017,3 10 0 0,0
28.11.2020 02:00:00 -0,3 -0,5 - - 9 5 - - W 1017,3 2,3 0 0,0
28.11.2020 01:00:00 1,1 1,1 - - 8 4 - - N 1017,0 9 0 0,0
28.11.2020 00:00:00 1,9 1,7 - - 4 2 - - WNW 1016,9 10 - 0,0
27.11.2020 23:00:00 1,7 1,6 - - 4 2 - - NNW 1016,9 6 0 0,0
27.11.2020 22:00:00 1,4 1,0 - - 4 2 - - W 1017,1 2,0 0 0,0
27.11.2020 21:00:00 2,5 2,1 - - 2 1 - - N 1017,1 7 0 0,0
27.11.2020 20:00:00 3,8 2,7 - - 9 5 - - WNW 1016,9 35 0 0,2
27.11.2020 19:00:00 5,5 4,0 - - 2 1 - - SSE 1017,4 17 0 0,2
27.11.2020 18:00:00 5,6 4,3 - - 9 5 - - S 1017,3 10 0 0,0
27.11.2020 17:00:00 5,3 4,5 - - 11 6 - - WSW 1017,4 18 0 0,0
27.11.2020 16:00:00 6,2 3,5 - - 8 4 - - SW 1017,4 10 0 0,0
27.11.2020 15:00:00 6,6 3,3 - - 11 6 - - W 1017,3 35 0 0,0
27.11.2020 14:00:00 6,8 3,5 - - 18 10 - - W 1017,6 10 0 0,0
27.11.2020 13:00:00 6,8 4,1 - - 16 9 - - W 1017,9 10 0 0,0
27.11.2020 12:00:00 5,8 4,0 - - 15 8 - - WSW 1018,2 10 0 0,0
27.11.2020 11:00:00 6,1 4,0 - - 18 10 - - W 1018,6 10 0 0,0
27.11.2020 10:00:00 5,7 3,4 - - 18 10 - - W 1019,0 10 0 0,0
27.11.2020 09:00:00 5,0 3,4 8,2 9,2 18 10 - - W 1018,9 10 0 0,0
27.11.2020 08:00:00 4,0 3,1 - - 13 7 - - W 1018,9 10 0 0,0
27.11.2020 07:00:00 4,3 3,5 - - 13 7 - - WSW 1018,7 10 0 0,0
27.11.2020 06:00:00 4,2 3,4 - - 16 9 - - WSW 1018,8 10 0 0,0
27.11.2020 05:00:00 4,4 3,7 - - 16 9 - - W 1019,0 10 0 0,0
27.11.2020 04:00:00 3,8 3,5 - - 15 8 - - W 1019,1 10 0 0,2
27.11.2020 03:00:00 3,5 3,4 - - 15 8 - - W 1019,5 7 0 0,0
27.11.2020 02:00:00 2,9 2,7 - - 11 6 - - W 1019,7 1,7 0 0,0
27.11.2020 01:00:00 3,0 2,4 - - 11 6 - - W 1019,6 10 0 0,0
27.11.2020 00:00:00 4,0 3,3 - - 8 4 - - NW 1019,7 10 - 0,0
26.11.2020 23:00:00 4,4 3,4 - - 8 4 - - W 1019,9 10 0 0,0
26.11.2020 22:00:00 4,3 3,7 - - 11 6 - - W 1019,7 10 0 0,0
26.11.2020 21:00:00 3,1 2,6 - - 9 5 - - W 1019,4 10 0 0,0
26.11.2020 20:00:00 2,6 2,0 - - 4 2 - - WSW 1019,4 10 0 0,0
26.11.2020 19:00:00 3,1 1,9 - - 11 6 - - W 1019,3 28 0 0,0
26.11.2020 18:00:00 3,1 2,0 - - 5 3 - - WSW 1019,4 30 0 0,0
26.11.2020 17:00:00 4,1 1,4 - - 9 5 - - W 1019,4 10 0 0,0
26.11.2020 16:00:00 6,1 3,0 - - 16 9 - - WSW 1019,3 10 0 0,0
26.11.2020 15:00:00 6,6 4,9 - - 9 5 - - WSW 1019,4 30 0 0,0
26.11.2020 14:00:00 6,9 4,6 - - 13 7 - - WSW 1019,6 35 0 0,0
26.11.2020 13:00:00 6,8 4,3 - - 8 4 - - WSW 1019,5 40 0 0,0
26.11.2020 12:00:00 6,8 4,2 - - 9 5 - - W 1019,8 10 0 0,0
26.11.2020 11:00:00 6,2 3,6 - - 11 6 - - W 1020,0 45 0 0,0
26.11.2020 10:00:00 5,5 3,4 - - 13 7 - - W 1020,0 40 0 0,0
26.11.2020 09:00:00 4,6 3,2 8,5 9,4 11 6 - - W 1019,7 10 0 0,0
26.11.2020 08:00:00 4,3 2,7 - - 13 7 - - W 1019,3 10 0 0,0
26.11.2020 07:00:00 4,4 3,4 - - 8 4 - - WSW 1019,1 40 0 0,0
26.11.2020 06:00:00 4,4 3,2 - - 15 8 - - WSW 1018,7 40 0 0,0
26.11.2020 05:00:00 3,8 2,8 - - 8 4 - - W 1018,3 10 0 0,0
26.11.2020 04:00:00 4,9 3,6 - - 13 7 - - W 1018,1 40 0 0,0
26.11.2020 03:00:00 4,4 3,2 - - 9 5 - - W 1018,0 40 0 0,0

tt = Température de l'air
td = dewpoint
tt -20cm = Température de l'air -20cm
tt -100cm = Température de l'air -100cm
ff = Vitesse du vent
fx = gusts
dd = Direction du vent
ppp = reduced air pressure
vv = visibility
sd = Ensoleillement
rr = Quantités de précipitations

stations d'obs. à proximité